Weather History for Williams, AZ

Change the Weather History Date:

Sunday, February 17, 2013

  Actual Average (KFLG) Record (KFLG)
Temperature  
Mean Temperature 39 °F 32 °F  
Max Temperature 50 °F 45 °F 66 °F (1977)
Min Temperature 28 °F 20 °F -8 °F (1956)
Degree Days  
Heating Degree Days 26 33  
Month to date heating degree days 572  
Since 1 July heating degree days 4488  
Cooling Degree Days 0 0  
Month to date cooling degree days 0  
Year to date cooling degree days 0  
Moisture  
Dew Point 10 °F    
Average Humidity 31    
Maximum Humidity 55    
Minimum Humidity 19    
Precipitation  
Precipitation 0.00 in 0.08 in 0.49 in (1971)
Month to date precipitation 1.27  
Year to date precipitation 3.32  
Snow  
Snow 0.00 in 0.80 in 4.80 in (1971)
Month to date snowfall 13.3  
Since 1 July snowfall 65.6  
Snow Depth -    
Sea Level Pressure  
Sea Level Pressure 30.04 in    
Wind  
Wind Speed 10 mph (SSW)    
Max Wind Speed 18 mph    
Max Gust Speed 28 mph    
Visibility 10 miles    
Events      
T = Trace of Precipitation, MM = Missing Value Source: NWS Daily Summary

Daily Weather History Graph

Daily Weather History Graph

Search for Another Location

Airport:

Trip Planner

Search our weather history database for the weather conditions in past years. The results will help you decide how hot, cold, wet, or windy it might be!

Date:

Astronomy

Feb. 17, 2013 Rise Set
Actual Time 7:12 AM MST 6:13 PM MST
Civil Twilight 6:46 AM MST 6:39 PM MST
Nautical Twilight 6:16 AM MST 7:09 PM MST
Astronomical Twilight 5:47 AM MST 7:38 PM MST
Moon 11:25 AM MST (2/17) 12:55 AM MST (2/17)
Length of Visible Light 11h 52m
Length of Day
11h 00m
Waxing Crescent, 49% of the Moon is Illuminated
Feb 17
Waxing Crescent
Feb 17
First Quarter
Feb 25
Full
Mar 4
Last Quarter
Mar 11
New

Hourly Weather History & Observations

Time (MST) Temp. Windchill Dew Point Humidity Pressure Visibility Wind Dir Wind Speed Gust Speed Precip Events Conditions
12:15 AM 33.8 °F 26.4 °F 8.6 °F 35% 30.20 in 10.0 mi SE 9.2 mph - N/A   Clear
12:35 AM 32.0 °F 24.8 °F 8.6 °F 38% 30.20 in 10.0 mi SSE 8.1 mph - N/A   Clear
12:55 AM 32.0 °F 25.6 °F 10.4 °F 41% 30.19 in 10.0 mi SSE 6.9 mph - N/A   Clear
1:15 AM 32.0 °F 24.2 °F 10.4 °F 41% 30.18 in 10.0 mi SSE 9.2 mph - N/A   Clear
1:35 AM 28.4 °F 19.7 °F 14.0 °F 55% 30.17 in 10.0 mi SE 9.2 mph - N/A   Clear
1:55 AM 32.0 °F 24.2 °F 10.4 °F 41% 30.17 in 10.0 mi SE 9.2 mph - N/A   Clear
2:15 AM 32.0 °F 23.6 °F 10.4 °F 41% 30.16 in 10.0 mi SSE 10.4 mph - N/A   Clear
2:35 AM 30.2 °F 21.9 °F 12.2 °F 47% 30.15 in 10.0 mi SSE 9.2 mph - N/A   Clear
2:55 AM 32.0 °F 24.8 °F 12.2 °F 44% 30.14 in 10.0 mi SSE 8.1 mph - N/A   Clear
3:15 AM 32.0 °F 23.6 °F 14.0 °F 48% 30.14 in 10.0 mi SSE 10.4 mph - N/A   Clear
3:35 AM 32.0 °F 23.6 °F 14.0 °F 48% 30.12 in 10.0 mi SE 10.4 mph - N/A   Clear
3:55 AM 32.0 °F 24.2 °F 10.4 °F 41% 30.11 in 10.0 mi SSE 9.2 mph - N/A   Clear
4:15 AM 33.8 °F 26.4 °F 10.4 °F 38% 30.11 in 10.0 mi SSE 9.2 mph - N/A   Clear
4:55 AM 37.4 °F 30.8 °F 8.6 °F 30% 30.09 in 10.0 mi SSE 9.2 mph - N/A   Clear
5:15 AM 35.6 °F 29.2 °F 10.4 °F 35% 30.09 in 10.0 mi SSE 8.1 mph - N/A   Clear
5:35 AM 35.6 °F 29.2 °F 8.6 °F 33% 30.08 in 10.0 mi SSE 8.1 mph - N/A   Clear
5:55 AM 33.8 °F 27.0 °F 10.4 °F 38% 30.08 in 10.0 mi SSE 8.1 mph - N/A   Clear
6:15 AM 33.8 °F 25.8 °F 10.4 °F 38% 30.07 in 10.0 mi SSE 10.4 mph - N/A   Clear
6:35 AM 32.0 °F 25.6 °F 10.4 °F 41% 30.07 in 10.0 mi SSE 6.9 mph - N/A   Clear
6:55 AM 32.0 °F 25.6 °F 8.6 °F 38% 30.06 in 10.0 mi SSE 6.9 mph - N/A   Clear
7:15 AM 32.0 °F 26.4 °F 8.6 °F 38% 30.07 in 10.0 mi South 5.8 mph - N/A   Clear
7:35 AM 32.0 °F 25.6 °F 8.6 °F 38% 30.07 in 10.0 mi SSE 6.9 mph - N/A   Clear
7:55 AM 32.0 °F 26.4 °F 12.2 °F 44% 30.06 in 10.0 mi South 5.8 mph - N/A   Clear
8:15 AM 37.4 °F 32.8 °F 10.4 °F 33% 30.06 in 10.0 mi SSE 5.8 mph - N/A   Clear
8:35 AM 41.0 °F 38.0 °F 10.4 °F 29% 30.06 in 10.0 mi SSE 4.6 mph - N/A   Clear
9:15 AM 44.6 °F 39.7 °F 8.6 °F 23% 30.06 in 10.0 mi SSW 9.2 mph - N/A   Clear
9:35 AM 44.6 °F 40.2 °F 8.6 °F 23% 30.05 in 10.0 mi SSW 8.1 mph - N/A   Clear
9:55 AM 44.6 °F 38.1 °F 8.6 °F 23% 30.05 in 10.0 mi SSW 13.8 mph 20.7 mph N/A   Clear
10:15 AM 46.4 °F 41.9 °F 8.6 °F 22% 30.05 in 10.0 mi SSW 9.2 mph - N/A   Clear
10:35 AM 46.4 °F 40.7 °F 8.6 °F 22% 30.04 in 10.0 mi SSW 12.7 mph 19.6 mph N/A   Clear
10:55 AM 46.4 °F 41.5 °F 10.4 °F 23% 30.03 in 10.0 mi SSW 10.4 mph - N/A   Clear
11:15 AM 46.4 °F 40.1 °F 10.4 °F 23% 30.03 in 10.0 mi SSW 15.0 mph 20.7 mph N/A   Clear
11:55 AM 46.4 °F 39.5 °F 10.4 °F 23% 30.02 in 10.0 mi SSW 17.3 mph 21.9 mph N/A   Clear
12:15 PM 46.4 °F 39.5 °F 10.4 °F 23% 30.01 in 10.0 mi SW 17.3 mph 24.2 mph N/A   Clear
12:35 PM 46.4 °F 41.1 °F 10.4 °F 23% 30.01 in 10.0 mi SW 11.5 mph 25.3 mph N/A   Clear
12:55 PM 46.4 °F 40.1 °F 14.0 °F 27% 30.00 in 10.0 mi SSW 15.0 mph 21.9 mph N/A   Clear
1:15 PM 46.4 °F 40.1 °F 10.4 °F 23% 29.99 in 10.0 mi WSW 15.0 mph 20.7 mph N/A   Clear
1:35 PM 48.2 °F - 10.4 °F 22% 29.98 in 10.0 mi SW 16.1 mph 27.6 mph N/A   Clear
1:55 PM 48.2 °F - 12.2 °F 24% 29.98 in 10.0 mi WSW 18.4 mph 21.9 mph N/A   Clear
2:15 PM 48.2 °F - 10.4 °F 22% 29.97 in 10.0 mi SW 10.4 mph 23.0 mph N/A   Clear
2:35 PM 50.0 °F - 10.4 °F 20% 29.96 in 10.0 mi SW 13.8 mph 18.4 mph N/A   Clear
2:55 PM 50.0 °F - 8.6 °F 19% 29.95 in 10.0 mi SW 17.3 mph 26.5 mph N/A   Clear
3:15 PM 48.2 °F - 10.4 °F 22% 29.95 in 10.0 mi West 17.3 mph 24.2 mph N/A   Clear
3:35 PM 50.0 °F - 10.4 °F 20% 29.95 in 10.0 mi SW 12.7 mph 20.7 mph N/A   Clear
4:15 PM 48.2 °F - 8.6 °F 20% 29.95 in 10.0 mi West 13.8 mph 23.0 mph N/A   Clear
4:35 PM 48.2 °F - 8.6 °F 20% 29.96 in 10.0 mi WSW 15.0 mph 25.3 mph N/A   Clear
4:55 PM 48.2 °F - 10.4 °F 22% 29.95 in 10.0 mi WSW 17.3 mph 20.7 mph N/A   Clear
5:15 PM 46.4 °F 40.7 °F 10.4 °F 23% 29.96 in 10.0 mi WSW 12.7 mph - N/A   Clear
5:35 PM 46.4 °F 39.8 °F 8.6 °F 22% 29.96 in 10.0 mi WSW 16.1 mph 20.7 mph N/A   Clear
5:55 PM 44.6 °F 38.4 °F 10.4 °F 25% 29.97 in 10.0 mi West 12.7 mph 20.7 mph N/A   Clear
6:15 PM 41.0 °F 33.9 °F 10.4 °F 29% 29.98 in 10.0 mi West 12.7 mph - N/A   Clear
6:35 PM 41.0 °F 34.7 °F 8.6 °F 26% 29.98 in 10.0 mi WSW 10.4 mph 16.1 mph N/A   Clear
6:55 PM 39.2 °F 32.0 °F 8.6 °F 28% 29.98 in 10.0 mi WSW 11.5 mph - N/A   Clear
7:15 PM 39.2 °F 33.0 °F 8.6 °F 28% 29.99 in 10.0 mi WSW 9.2 mph - N/A   Clear
7:35 PM 37.4 °F 30.8 °F 8.6 °F 30% 29.99 in 10.0 mi WSW 9.2 mph - N/A   Clear
7:55 PM 37.4 °F 34.9 °F 8.6 °F 30% 30.00 in 10.0 mi SW 3.5 mph - N/A   Clear
8:15 PM 35.6 °F 29.9 °F 8.6 °F 33% 30.01 in 10.0 mi SW 6.9 mph - N/A   Clear
8:35 PM 35.6 °F 29.9 °F 8.6 °F 33% 30.01 in 10.0 mi SW 6.9 mph - N/A   Clear
8:55 PM 35.6 °F 28.0 °F 8.6 °F 33% 30.02 in 10.0 mi SW 10.4 mph - N/A   Clear
9:15 PM 35.6 °F 29.2 °F 8.6 °F 33% 30.03 in 10.0 mi SW 8.1 mph - N/A   Clear
9:35 PM 35.6 °F 28.0 °F 8.6 °F 33% 30.03 in 10.0 mi SW 10.4 mph - N/A   Clear
9:55 PM 35.6 °F 28.6 °F 8.6 °F 33% 30.03 in 10.0 mi WSW 9.2 mph - N/A   Clear
10:15 PM 35.6 °F 29.9 °F 8.6 °F 33% 30.04 in 10.0 mi WSW 6.9 mph - N/A   Clear
10:35 PM 33.8 °F 29.6 °F 8.6 °F 35% 30.04 in 10.0 mi WSW 4.6 mph - N/A   Clear
10:55 PM 33.8 °F 26.4 °F 10.4 °F 38% 30.04 in 10.0 mi WSW 9.2 mph - N/A   Clear
11:15 PM 35.6 °F 28.6 °F 10.4 °F 35% 30.04 in 10.0 mi SW 9.2 mph - N/A   Clear
11:35 PM 33.8 °F 26.4 °F 10.4 °F 38% 30.04 in 10.0 mi SW 9.2 mph - N/A   Clear
11:55 PM 33.8 °F 27.0 °F 8.6 °F 35% 30.04 in 10.0 mi WSW 8.1 mph - N/A   Clear